Weather in San Pedro

Philippines     14°20′33″N   121°03′10″E
temp.,
°C
wind,
m/s
gust,
m/s
humid.,
%
clouds,
%
prec.,
mm/h
press.,
hPa
HPBL,
m
16 april, fri
fri1623:00+24ese3687100 0.0 1012261
02:00+23se3592100 0.0 1010193
05:00+23ese369296 0.0 1010223
08:00+27e4668100 0.0 1012734
11:00+33ene5637100 0.0 10111418
14:00+34ene6533100 0.0 10081581
17:00+30e6753100 0.0 1009758
20:00+26ese5979100 0.0 1011503
17 april, sat
sat1723:00+25ese4885100 0.0 1012392
02:00+23ese269183 0.0 1011200
05:00+22ese2492100 0.0 1011115
08:00+27ene466686 0.0 1012764
11:00+33ne453497 0.0 10111337
14:00+35ene442687 0.0 10082080
17:00+31e5536100 0.0 10081024
20:00+25ese3474100 0.0 1011192
18 april, sun
sun1823:00+24ese3485100 0.0 1012176
02:00+23ese3687100 0.3 1010189
05:00+23ese3590100 0.3 1009173
08:00+26e3574100 0.3 1011411
11:00+31ne3547100 0.0 10101296
14:00+34ene4435100 0.0 10061983
17:00+32ene2241100 0.0 1004845
20:00+25ese1273100 0.2 1008113
19 april, mon
mon1923:00+24se3581100 0.1 1009195
02:00+23sse2282100 0.4 100761
05:00+23ssw1183100 0.1 100636
08:00+27nne2265100 0.1 1007664
11:00+31n4447100 0.0 10071321
14:00+34nw6535100 0.0 10041942
17:00+28wsw7961100 0.0 1004669
20:00+25w4986100 3.9 1007429
20 april, tue
tue2023:00+24wsw3687100 3.7 1007193
02:00+24wsw2388100 4.1 100595
05:00+24sw1190100 0.2 100626
08:00+27e1071100 0.3 1007628
11:00+32nnw4350100 0.1 10061644
14:00+32nw5547100 0.1 10031601
17:00+30wsw4459100 0.1 1004815
20:00+26sw3578100 0.3 1007509